Wetbulb
67.09 69.69 68.36 63.58 55.82 55.21 51.46 52.13 56.78 55.74 56.79 58.96 61.78 59.83 59.68 60.82 57.57 55.58 68.16 68.86 69.35 69.39 68.98 70.46 70.71 71.02 69.96 69.40 69.15 69.76 70.12 69.24 68.90 68.48 67.85 67.52 67.05 67.35 68.10 68.15 68.74 69.21 69.54 69.52 68.90 68.23 68.20 67.79 67.40
66.99 67.30 64.23 61.63 53.52 49.83 50.40 55.11 53.38 56.48 58.94 59.52 60.86 60.52 59.86 58.97 63.80 64.79 66.06 68.99 69.61 69.54 68.93 69.53 70.21 70.69 70.36 69.52 69.21 69.21 69.50 69.14 68.61 68.18 67.81 67.51 66.78 66.45 66.82 67.83 67.64 68.32 68.40 68.37 67.99 67.72 67.15 66.99 66.97
65.63 65.01 60.55 57.06 54.00 50.69 50.74 54.68 55.83 57.89 59.68 59.32 59.32 62.47 61.34 60.82 64.68 66.03 69.05 69.37 69.62 68.97 69.15 70.34 70.46 70.80 70.28 69.86 69.19 69.27 68.73 68.42 68.17 67.43 66.93 66.60 66.58 66.21 66.06 66.16 67.00 67.36 67.11 66.89 66.64 67.64 66.78 66.74 66.35
63.42 61.77 60.45 53.79 51.34 54.24 54.05 55.60 57.48 57.62 57.73 59.94 60.41 58.54 63.19 66.19 65.76 68.17 69.39 69.69 69.04 68.69 69.22 69.33 70.58 70.48 70.27 69.96 69.99 69.62 68.30 67.76 67.14 66.44 66.42 65.89 65.61 65.80 65.68 65.26 66.73 66.91 66.25 65.67 65.35 66.54 67.19 66.64 65.80
61.21 60.69 53.51 51.91 52.66 54.68 56.16 57.35 58.38 55.93 56.70 57.78 60.06 57.76 60.85 66.16 68.78 68.82 69.08 69.53 68.63 68.62 69.11 69.02 69.68 69.82 69.56 69.44 69.44 69.39 69.22 68.44 67.66 67.11 66.35 65.87 65.16 64.86 65.09 65.08 64.98 65.96 66.04 65.20 64.25 64.45 65.40 65.97 65.44
57.99 58.92 50.88 49.62 52.36 54.87 56.56 58.47 57.54 55.93 56.54 57.83 56.94 59.39 61.52 67.29 67.93 68.35 69.34 69.44 69.59 68.82 68.96 68.90 67.13 68.53 69.16 69.50 70.14 69.89 69.22 69.09 68.73 68.30 67.36 66.44 65.66 64.97 64.78 64.52 64.87 64.48 64.27 64.46 64.10 63.73 63.43 64.10 64.33
56.52 54.41 50.74 52.24 52.54 53.58 55.59 59.05 56.32 56.00 56.55 55.54 60.71 58.17 62.57 65.54 68.51 69.16 69.36 69.64 69.71 69.21 68.94 68.83 69.02 68.12 66.49 67.94 68.41 69.15 69.03 68.64 68.73 68.59 68.45 67.77 67.22 66.42 65.57 65.39 64.13 63.41 62.91 63.42 63.68 63.33 63.08 63.19 63.34
56.98 56.55 50.98 52.41 52.20 52.81 57.01 57.77 59.13 58.44 57.05 61.70 62.58 56.97 59.11 65.46 68.70 69.25 69.17 68.82 68.94 69.46 69.25 68.52 68.80 69.11 68.86 68.69 65.79 66.58 67.45 67.54 67.63 67.74 66.91 65.84 65.85 66.02 65.43 64.37 65.05 63.84 63.66 63.44 63.45 63.37 63.16 63.20 63.11
56.84 52.27 49.56 51.72 52.67 54.58 57.70 56.33 59.54 60.74 58.72 59.12 60.83 60.91 64.25 67.52 68.23 67.75 67.21 67.29 67.66 68.24 68.97 69.28 68.66 68.78 68.91 68.67 66.69 64.67 65.26 65.82 65.66 65.28 64.11 64.17 67.19 66.46 65.88 64.50 64.75 64.74 64.80 64.72 64.97 65.17 65.12 64.56 63.84
53.67 52.16 51.88 55.39 56.39 56.12 56.83 57.23 57.93 57.47 56.73 57.33 58.71 62.38 65.94 67.00 66.53 65.63 65.19 65.10 66.13 67.00 67.57 68.54 68.71 68.61 69.01 68.60 69.14 68.62 68.37 68.36 68.01 67.81 66.94 67.39 67.30 67.40 66.08 62.96 63.01 64.21 64.22 64.72 64.90 65.08 65.26 63.44 64.69
53.12 52.15 54.00 54.22 55.94 57.75 56.92 57.05 59.34 57.54 54.87 57.54 57.82 60.49 64.41 65.36 65.39 65.14 65.45 65.92 66.25 67.50 68.28 68.83 69.13 69.49 69.26 68.99 68.79 68.98 68.88 68.91 68.65 68.42 68.09 67.66 67.31 66.91 66.96 66.56 66.07 66.20 60.37 65.65 64.45 64.70 64.69 65.18 65.39
50.23 52.75 53.64 53.54 54.35 56.78 55.99 58.31 56.89 58.15 57.83 60.45 61.01 62.95 64.62 64.18 64.31 64.75 65.09 65.89 66.37 67.01 67.57 68.39 68.89 68.89 69.10 69.16 68.77 68.68 68.29 68.59 68.19 68.28 68.34 67.98 67.32 67.17 66.91 66.56 66.25 66.93 65.82 65.99 66.32 65.18 65.44 65.91 65.89
50.34 51.68 53.42 53.79 53.88 56.50 57.63 56.62 57.15 57.79 58.88 60.91 62.46 62.90 63.66 64.07 64.47 65.49 66.03 66.47 66.77 66.48 67.46 68.25 68.83 68.72 68.81 68.75 68.63 68.42 68.14 68.11 68.08 67.88 68.01 68.00 67.09 66.99 66.64 65.79 65.82 65.52 65.43 65.61 65.33 65.29 64.67 64.13 64.02
50.52 51.88 52.66 53.67 53.56 53.92 54.79 55.45 56.28 58.69 59.71 59.91 61.37 61.59 63.06 63.49 63.96 64.56 64.87 64.93 65.76 66.69 67.18 68.19 68.44 68.81 68.89 68.63 68.54 68.13 68.28 68.11 68.20 67.90 67.66 67.76 67.46 66.87 65.82 65.74 65.52 64.99 65.63 65.33 65.08 64.60 64.80 64.49 64.32
50.01 48.04 52.02 52.72 52.79 52.23 55.81 51.66 53.42 58.42 58.83 59.53 60.56 61.52 62.22 63.01 64.01 63.95 64.96 64.88 65.98 66.77 67.43 67.46 67.98 68.77 68.49 68.39 68.50 68.42 68.33 68.10 67.81 67.81 68.20 68.04 67.50 66.82 66.42 66.28 65.41 65.34 65.81 65.69 65.23 65.05 65.07 64.26 64.22
46.18 47.03 44.26 50.54 52.13 51.68 52.48 49.93 55.52 56.61 57.55 58.09 59.87 61.08 61.29 62.27 63.18 64.37 64.78 65.13 66.21 66.73 66.74 67.52 67.60 68.05 68.31 68.33 68.44 68.34 68.43 68.46 68.12 67.69 67.60 67.49 67.51 67.21 66.52 66.54 65.81 66.08 65.98 65.80 64.77 64.36 63.98 63.82 63.07
43.27 41.73 44.27 44.39 50.12 50.66 51.57 51.13 55.03 55.16 56.65 57.37 58.92 60.14 60.79 61.42 62.79 64.05 64.95 65.20 65.64 66.54 66.63 66.79 67.50 67.25 67.70 68.29 68.45 68.40 68.35 68.09 67.83 67.30 65.72 65.07 65.63 66.20 66.30 66.39 66.99 66.88 66.20 65.77 65.52 65.13 64.53 63.33 63.48
38.13 38.61 40.97 43.46 44.88 48.12 49.15 50.28 50.47 52.40 54.28 56.45 57.99 59.17 59.88 60.30 61.47 63.51 64.47 65.47 65.90 66.33 66.67 66.87 67.09 66.71 66.63 67.17 67.50 67.58 66.29 64.70 63.77 61.20 60.78 61.26 62.13 63.61 65.22 65.94 66.36 67.13 66.45 65.58 65.50 64.14 64.15 62.62 62.03
42.56 41.64 40.31 42.92 44.44 43.28 46.21 47.69 51.10 51.23 51.61 53.27 55.44 56.70 57.94 59.12 61.65 62.93 63.78 64.75 65.10 65.70 65.72 65.63 64.97 64.33 63.29 62.87 62.46 62.43 61.37 61.31 60.07 60.19 61.13 60.79 61.09 61.66 63.66 65.10 65.24 65.90 66.03 65.23 64.74 63.92 61.84 61.92 62.03
43.33 41.43 40.99 42.18 42.27 42.22 43.84 43.64 47.40 49.92 51.19 52.18 53.35 54.33 55.21 56.44 58.04 59.48 61.40 62.80 63.34 63.85 63.75 63.40 63.15 62.83 61.84 61.64 61.89 61.35 60.76 60.23 60.20 60.97 59.42 59.42 60.46 61.90 63.03 63.83 64.62 65.11 65.26 64.62 63.62 62.61 61.45 61.12 62.09
42.48 41.56 41.97 40.16 40.33 41.63 41.61 41.63 44.61 47.99 49.06 50.07 50.72 51.87 52.85 53.40 53.84 55.01 57.28 59.09 60.57 61.09 61.46 61.56 60.85 60.86 60.94 60.06 59.72 58.73 58.89 59.52 58.01 57.44 57.88 57.86 58.31 59.89 61.94 63.47 64.55 64.68 64.73 63.19 62.58 61.74 61.01 59.33 61.26
37.99 42.20 41.27 38.63 38.92 36.02 41.41 35.38 44.74 47.75 47.33 47.51 48.37 49.82 51.00 52.17 53.29 53.83 54.20 54.72 56.31 56.96 58.59 58.16 58.78 58.63 58.75 58.79 57.53 57.61 56.74 56.04 57.77 58.68 58.57 56.07 56.02 57.00 58.03 59.81 61.04 61.49 60.82 60.33 60.07 58.52 59.73 59.17 57.94
40.95 43.23 41.00 40.21 38.49 38.10 38.26 35.59 41.15 45.98 43.48 45.40 47.47 48.68 49.27 50.00 50.20 50.23 50.97 52.34 53.68 55.73 56.94 57.54 56.63 56.69 57.39 57.04 56.45 57.00 57.21 58.27 58.69 57.52 55.45 54.92 53.77 54.05 53.56 54.44 55.63 56.39 56.77 56.58 56.62 56.28 56.87 57.50 57.43
44.04 41.57 40.95 40.55 37.74 30.11 36.86 36.61 38.26 41.79 41.66 43.84 45.46 44.49 45.61 46.82 48.13 49.53 50.54 50.50 50.65 52.66 52.89 53.76 54.42 54.91 56.03 55.17 55.24 55.63 56.51 57.05 56.29 54.81 54.09 53.55 53.04 51.81 51.53 51.84 53.12 53.62 53.86 53.83 53.62 53.39 53.49 54.02 54.66
42.28 38.49 30.56 28.66 28.71 28.72 35.39 35.52 38.61 42.16 43.04 43.22 43.45 44.39 45.51 47.65 48.39 48.84 49.28 50.01 50.92 51.46 51.54 51.59 52.34 52.36 53.80 53.27 53.29 53.95 55.13 56.58 55.81 54.70 53.86 52.64 51.06 49.60 49.10 49.75 50.24 50.26 50.41 50.14 50.32 50.19 49.80 49.94 51.01
38.49 37.58 32.20 24.08 26.37 30.55 32.90 29.29 36.32 42.49 44.41 45.00 45.10 45.36 46.49 47.67 48.96 49.45 50.00 50.05 50.01 50.25 50.13 50.29 50.27 50.51 51.46 50.66 51.12 52.73 54.07 55.85 55.90 55.26 53.74 52.51 51.14 49.94 48.06 47.65 47.94 46.83 46.57 46.66 47.46 47.47 47.22 47.46 47.86
36.81 33.73 37.77 30.47 27.66 28.81 32.68 35.73 40.56 43.13 42.60 43.89 44.52 45.06 46.09 47.33 48.72 49.61 50.25 50.51 50.25 50.12 49.19 48.87 49.12 48.81 49.22 48.85 50.04 50.75 51.86 53.38 53.53 53.43 52.84 51.83 50.54 47.14 45.66 45.53 45.13 44.92 44.92 45.32 45.53 45.69 44.54 45.67 45.76
39.23 40.38 30.02 33.25 24.60 23.05 29.67 31.59 33.08 37.81 40.02 42.29 43.09 44.53 45.84 46.86 48.13 48.62 49.81 50.12 49.94 49.32 48.86 48.47 48.66 48.40 48.46 48.02 48.04 48.50 49.54 50.64 51.54 50.70 49.35 48.54 46.78 44.57 44.02 43.72 43.91 43.51 43.54 43.48 44.06 43.89 43.81 43.63 43.65
36.28 34.58 35.72 35.16 32.91 27.02 25.97 31.69 39.90 40.08 41.43 41.86 43.33 44.75 45.76 46.74 47.88 48.87 49.59 49.92 49.38 49.05 48.20 47.99 47.82 47.69 47.65 46.96 46.92 46.60 47.25 47.69 48.09 47.28 47.22 46.05 44.84 43.44 42.94 42.54 42.27 41.92 41.59 42.02 42.28 42.55 41.86 41.36 40.55
39.69 36.52 36.38 29.89 27.92 30.96 30.02 31.23 41.82 41.98 42.36 43.72 43.45 44.46 45.76 46.58 48.19 48.80 49.29 49.30 49.12 49.08 48.69 47.61 47.49 46.91 46.81 46.55 46.00 45.24 45.49 44.97 44.75 44.88 45.25 44.20 42.43 42.19 42.06 41.60 40.94 40.54 40.28 40.42 40.45 40.27 39.68 39.10 37.66
MSLP
1012.37 1011.90 1010.79 1010.60 1009.50 1007.79 1007.15 1008.08 1008.26 1009.12 1009.69 1010.40 1010.40 1010.81 1011.01 1011.75 1012.35 1014.10 1015.11 1015.34 1015.84 1016.64 1017.61 1018.38 1018.89 1019.09 1019.33 1019.53 1019.72 1019.86 1019.90 1020.09 1020.22 1020.39 1020.52 1020.64 1020.71 1020.75 1020.78 1020.68 1020.70 1020.70 1020.72 1020.79 1021.02 1021.10 1021.24 1021.32 1021.37
1011.46 1011.34 1010.70 1009.02 1007.87 1006.56 1006.74 1007.83 1008.63 1009.38 1009.98 1010.94 1011.37 1011.64 1011.65 1012.49 1013.65 1014.63 1015.21 1015.74 1015.98 1016.55 1017.56 1018.20 1019.02 1019.23 1019.43 1019.68 1019.88 1020.06 1020.25 1020.38 1020.55 1020.69 1020.80 1020.90 1020.97 1021.09 1021.09 1021.03 1021.00 1021.00 1021.10 1021.21 1021.37 1021.41 1021.51 1021.60 1021.58
1011.74 1011.06 1009.51 1008.10 1007.17 1005.89 1006.36 1007.78 1008.47 1009.90 1010.82 1011.04 1011.44 1012.01 1012.13 1013.07 1014.06 1014.53 1015.00 1015.74 1016.19 1016.85 1017.33 1018.50 1019.12 1019.37 1019.64 1019.87 1020.07 1020.25 1020.46 1020.65 1020.80 1020.93 1021.05 1021.15 1021.27 1021.38 1021.44 1021.38 1021.39 1021.37 1021.47 1021.63 1021.78 1021.65 1021.69 1021.82 1021.81
1011.15 1010.49 1009.32 1008.03 1006.63 1006.92 1006.98 1007.84 1009.03 1010.34 1011.17 1011.35 1011.31 1011.96 1013.23 1013.94 1013.91 1014.39 1015.48 1015.68 1016.30 1016.97 1017.61 1019.00 1019.25 1019.46 1019.74 1019.97 1020.11 1020.37 1020.61 1020.79 1020.99 1021.12 1021.20 1021.35 1021.47 1021.59 1021.66 1021.65 1021.70 1021.70 1021.82 1021.99 1022.07 1022.09 1022.02 1022.09 1022.05
1011.33 1009.18 1008.27 1007.63 1006.78 1007.58 1007.90 1008.43 1009.41 1010.07 1010.66 1011.30 1011.56 1012.18 1013.28 1014.15 1014.50 1015.18 1015.56 1015.85 1016.39 1017.06 1017.85 1018.98 1019.47 1019.67 1019.88 1020.10 1020.27 1020.46 1020.63 1020.86 1021.09 1021.26 1021.40 1021.53 1021.65 1021.78 1021.87 1021.88 1021.92 1021.99 1022.09 1022.24 1022.38 1022.39 1022.34 1022.35 1022.35
1010.26 1008.70 1007.81 1007.18 1007.13 1008.07 1008.35 1008.91 1009.51 1009.91 1010.57 1011.27 1011.80 1012.27 1013.47 1014.41 1014.64 1015.24 1015.67 1015.89 1016.38 1017.09 1018.02 1018.94 1019.69 1019.87 1020.09 1020.25 1020.41 1020.57 1020.76 1020.90 1021.10 1021.28 1021.45 1021.63 1021.79 1021.92 1022.04 1022.11 1022.18 1022.25 1022.33 1022.41 1022.48 1022.50 1022.57 1022.59 1022.62
1009.85 1008.78 1007.70 1006.99 1007.08 1008.19 1008.52 1009.11 1009.49 1009.85 1010.59 1011.20 1011.25 1011.96 1013.49 1014.29 1014.59 1015.16 1015.62 1016.00 1016.37 1017.26 1017.98 1018.68 1019.32 1019.89 1020.29 1020.45 1020.61 1020.73 1020.88 1021.03 1021.12 1021.30 1021.48 1021.65 1021.82 1021.97 1022.11 1022.24 1022.31 1022.37 1022.45 1022.49 1022.60 1022.64 1022.67 1022.66 1022.71
1010.50 1009.05 1007.90 1006.94 1007.13 1007.82 1008.63 1009.36 1009.73 1009.99 1010.66 1011.41 1011.42 1011.64 1012.87 1013.79 1014.72 1015.17 1015.54 1016.12 1016.53 1017.19 1017.95 1018.43 1018.83 1019.44 1019.85 1020.28 1020.67 1020.82 1021.00 1021.20 1021.31 1021.40 1021.61 1021.84 1021.96 1022.05 1022.18 1022.31 1022.32 1022.40 1022.49 1022.55 1022.63 1022.73 1022.75 1022.73 1022.72
1010.90 1009.61 1008.05 1007.44 1007.35 1007.74 1009.04 1009.43 1010.13 1010.85 1011.21 1011.63 1012.24 1011.89 1012.16 1013.78 1014.87 1015.33 1015.53 1016.10 1016.58 1017.21 1017.60 1017.92 1018.72 1018.97 1019.28 1019.81 1020.39 1020.91 1021.06 1021.25 1021.49 1021.61 1021.70 1021.86 1021.55 1021.73 1021.87 1021.96 1022.28 1022.40 1022.52 1022.59 1022.61 1022.64 1022.68 1022.71 1022.58
1010.62 1009.63 1008.43 1007.95 1007.87 1008.14 1009.21 1009.42 1010.15 1010.88 1011.19 1011.72 1012.50 1013.29 1013.11 1014.07 1014.80 1015.24 1015.55 1015.80 1016.45 1017.06 1017.65 1017.91 1018.39 1018.72 1019.00 1019.27 1019.88 1020.19 1020.47 1020.73 1020.89 1021.08 1021.42 1021.33 1021.25 1021.18 1021.42 1021.81 1022.16 1022.37 1022.43 1022.47 1022.47 1022.49 1022.53 1022.53 1021.99
1011.11 1010.06 1009.80 1009.74 1009.70 1009.11 1009.37 1009.64 1010.22 1010.37 1010.88 1010.93 1011.76 1012.95 1013.50 1014.22 1014.73 1015.11 1015.60 1015.82 1016.09 1016.61 1017.20 1017.64 1018.07 1018.40 1018.83 1019.11 1019.48 1019.68 1019.86 1020.28 1020.30 1020.42 1020.66 1020.84 1021.00 1021.26 1021.40 1021.45 1021.68 1021.81 1022.12 1021.75 1021.95 1021.90 1021.99 1021.64 1021.65
1011.77 1011.40 1011.06 1011.20 1011.03 1009.94 1009.92 1010.12 1010.58 1010.46 1010.48 1010.61 1011.31 1012.65 1013.58 1013.96 1014.53 1014.75 1015.31 1015.75 1016.11 1016.25 1016.79 1017.45 1017.70 1018.20 1018.57 1018.86 1019.27 1019.24 1019.43 1019.66 1019.87 1020.07 1020.43 1020.64 1020.81 1020.91 1020.91 1020.87 1021.24 1021.31 1021.46 1021.46 1021.50 1021.59 1021.58 1021.51 1021.54
1012.33 1011.99 1011.83 1011.75 1011.53 1010.81 1010.68 1010.65 1010.50 1010.69 1011.24 1011.59 1011.73 1012.68 1013.26 1013.87 1014.26 1014.63 1015.02 1015.40 1015.94 1016.07 1016.46 1017.14 1017.55 1018.02 1018.39 1018.81 1018.85 1018.95 1019.16 1019.55 1019.57 1019.73 1020.00 1020.32 1020.37 1020.55 1020.70 1020.76 1020.85 1021.01 1021.01 1021.05 1021.17 1021.23 1021.46 1021.58 1021.63
1013.63 1012.77 1012.23 1012.00 1011.89 1012.00 1011.47 1011.34 1011.31 1011.04 1011.73 1011.83 1012.31 1012.56 1013.00 1013.59 1013.97 1014.39 1014.81 1015.27 1015.72 1016.01 1016.34 1016.85 1017.38 1017.70 1017.97 1018.32 1018.55 1018.72 1018.93 1019.03 1019.35 1019.45 1019.57 1019.88 1020.10 1020.11 1020.27 1020.57 1020.96 1020.92 1020.72 1020.62 1020.52 1020.55 1020.87 1021.10 1021.22
1014.36 1013.02 1012.40 1012.08 1012.28 1012.31 1011.73 1011.82 1011.14 1011.27 1012.00 1011.89 1012.38 1012.52 1012.83 1013.36 1013.71 1014.10 1014.59 1015.10 1015.53 1015.86 1016.09 1016.50 1016.99 1017.31 1017.65 1017.97 1018.18 1018.41 1018.55 1018.80 1018.93 1019.15 1019.33 1019.50 1019.63 1019.78 1019.82 1020.13 1020.37 1020.39 1020.41 1020.54 1020.57 1020.62 1020.60 1020.72 1020.65
1014.90 1013.60 1012.57 1012.46 1012.57 1012.68 1012.47 1011.10 1011.05 1011.83 1011.96 1011.75 1012.13 1012.12 1012.70 1013.10 1013.51 1013.90 1014.33 1014.78 1015.12 1015.55 1015.91 1016.28 1016.68 1017.16 1017.49 1017.62 1017.92 1018.06 1018.20 1018.44 1018.65 1018.74 1018.91 1019.11 1019.30 1019.37 1019.43 1019.39 1019.75 1019.74 1019.75 1020.11 1020.36 1020.42 1020.43 1020.47 1020.60
1016.36 1014.41 1013.64 1013.45 1013.41 1012.93 1012.70 1011.32 1011.15 1012.26 1012.07 1011.66 1011.74 1011.98 1012.41 1012.82 1013.35 1013.64 1013.89 1014.18 1014.66 1015.07 1015.55 1015.95 1016.41 1016.90 1017.19 1017.42 1017.67 1017.88 1018.04 1018.21 1018.29 1018.43 1018.62 1018.75 1018.89 1019.04 1019.13 1019.07 1018.99 1019.08 1019.15 1019.39 1019.63 1019.83 1020.01 1020.13 1020.10
1016.67 1016.09 1015.32 1014.09 1014.09 1013.66 1013.08 1012.32 1012.28 1012.53 1012.29 1011.72 1011.54 1011.73 1012.00 1012.46 1012.69 1013.36 1013.69 1014.10 1014.46 1014.85 1015.21 1015.46 1015.91 1016.41 1016.74 1017.02 1017.33 1017.64 1018.05 1018.34 1018.32 1018.43 1018.57 1018.72 1018.81 1018.81 1018.82 1018.79 1018.82 1018.81 1019.00 1019.19 1019.55 1019.77 1019.71 1019.87 1019.81
1016.61 1016.50 1016.05 1015.42 1015.30 1014.89 1013.68 1012.88 1011.98 1012.51 1012.52 1012.05 1011.93 1011.84 1011.89 1012.06 1012.58 1012.96 1013.33 1013.91 1014.34 1014.70 1015.06 1015.45 1015.86 1016.33 1016.72 1017.00 1017.33 1017.50 1017.58 1017.92 1017.98 1018.15 1018.51 1018.86 1018.81 1018.78 1018.79 1018.65 1018.52 1018.41 1018.67 1019.00 1019.15 1019.38 1019.64 1019.65 1019.60
1016.02 1015.75 1016.26 1016.45 1016.33 1016.11 1014.40 1013.36 1012.53 1012.04 1012.08 1012.18 1012.02 1011.83 1011.87 1012.00 1012.19 1012.66 1013.20 1013.59 1014.02 1014.53 1014.97 1015.27 1015.51 1015.92 1016.35 1016.57 1016.76 1016.96 1017.03 1017.23 1017.44 1017.80 1018.48 1018.86 1018.90 1018.81 1018.54 1018.51 1018.49 1018.26 1018.37 1018.80 1019.19 1019.59 1019.61 1019.61 1019.91
1015.45 1015.57 1015.59 1016.15 1016.80 1016.61 1015.56 1013.46 1012.26 1011.83 1011.97 1012.13 1012.14 1012.06 1011.90 1011.78 1011.66 1011.96 1012.41 1013.13 1013.71 1014.10 1014.65 1014.93 1015.30 1015.62 1015.80 1016.26 1016.51 1017.01 1017.36 1017.45 1017.86 1018.08 1018.40 1018.74 1019.02 1018.96 1018.74 1018.45 1018.27 1018.32 1018.63 1019.01 1019.33 1019.63 1019.76 1019.77 1019.86
1015.38 1015.89 1016.24 1016.65 1016.81 1016.51 1016.12 1013.48 1011.43 1010.92 1011.09 1011.79 1012.03 1011.93 1011.61 1011.39 1011.75 1011.84 1012.44 1012.95 1013.19 1013.84 1014.33 1014.95 1015.12 1015.38 1015.62 1015.97 1016.27 1016.47 1016.54 1016.69 1016.83 1017.22 1018.00 1018.66 1019.01 1019.03 1019.08 1018.82 1018.71 1018.77 1019.07 1019.35 1019.66 1020.01 1020.07 1020.19 1020.06
1015.86 1016.09 1016.56 1017.11 1017.60 1017.42 1016.54 1015.21 1012.20 1011.71 1011.41 1011.47 1011.33 1011.16 1011.50 1011.67 1012.15 1012.53 1013.00 1013.32 1013.63 1014.05 1014.35 1014.58 1015.10 1015.18 1015.37 1015.64 1015.98 1016.20 1016.24 1016.16 1016.46 1017.39 1018.14 1018.64 1019.00 1019.10 1019.27 1019.30 1019.35 1019.39 1019.50 1019.83 1020.03 1020.24 1020.35 1020.49 1020.47
1016.42 1016.65 1017.31 1017.94 1018.41 1017.68 1016.37 1015.31 1012.00 1011.52 1011.23 1011.12 1011.34 1012.04 1012.47 1012.73 1013.14 1013.44 1013.71 1014.09 1014.45 1014.73 1015.00 1015.17 1015.13 1015.11 1015.45 1015.81 1015.99 1016.09 1016.16 1016.42 1016.92 1017.44 1017.99 1018.42 1018.76 1019.07 1019.31 1019.47 1019.49 1019.59 1019.76 1019.97 1020.16 1020.31 1020.41 1020.55 1020.70
1016.58 1016.71 1017.75 1018.46 1018.54 1017.10 1016.04 1014.70 1012.29 1011.78 1011.49 1011.57 1011.83 1012.28 1012.89 1013.07 1013.30 1013.50 1013.71 1014.04 1014.36 1014.67 1015.03 1015.26 1015.28 1015.23 1015.50 1015.99 1016.23 1016.32 1016.34 1016.41 1016.86 1017.36 1017.84 1018.21 1018.59 1019.00 1019.32 1019.48 1019.67 1019.80 1019.95 1020.27 1020.40 1020.56 1020.72 1020.88 1021.00
1016.44 1016.20 1016.28 1017.15 1017.24 1016.48 1016.57 1014.42 1012.45 1012.24 1011.85 1011.86 1012.51 1013.08 1013.24 1013.32 1013.40 1013.65 1014.01 1014.34 1014.61 1015.02 1015.44 1015.60 1015.72 1015.76 1015.87 1016.28 1016.37 1016.43 1016.60 1016.69 1016.90 1017.18 1017.63 1017.97 1018.40 1018.88 1019.29 1019.64 1019.90 1020.20 1020.35 1020.50 1020.65 1020.79 1021.01 1021.18 1021.39
1016.76 1016.49 1016.82 1017.19 1018.13 1017.08 1015.33 1013.83 1012.51 1011.98 1011.69 1012.14 1012.78 1013.06 1013.19 1013.27 1013.61 1013.98 1014.27 1014.49 1014.81 1015.16 1015.66 1015.94 1016.06 1016.30 1016.32 1016.59 1016.68 1016.76 1016.88 1016.99 1017.03 1017.25 1017.63 1017.91 1018.24 1018.73 1019.30 1019.66 1019.94 1020.22 1020.39 1020.53 1020.71 1020.93 1021.18 1021.35 1021.56
1016.47 1016.38 1017.25 1017.35 1017.25 1016.36 1014.41 1013.50 1012.41 1012.42 1012.25 1012.35 1012.84 1013.03 1013.34 1013.69 1013.89 1013.98 1014.21 1014.61 1015.01 1015.41 1015.66 1015.88 1016.08 1016.19 1016.36 1016.55 1016.76 1016.95 1017.01 1017.10 1017.22 1017.43 1017.71 1018.00 1018.39 1018.76 1019.15 1019.57 1019.83 1020.08 1020.32 1020.50 1020.65 1020.97 1021.25 1021.50 1021.71
1016.80 1016.43 1016.64 1016.55 1016.71 1015.77 1014.30 1012.70 1012.33 1012.29 1012.46 1012.89 1013.23 1013.73 1013.95 1014.11 1014.14 1014.23 1014.48 1014.75 1015.07 1015.30 1015.59 1015.74 1015.92 1015.99 1016.07 1016.31 1016.48 1016.74 1016.89 1017.06 1017.23 1017.47 1017.70 1018.00 1018.25 1018.51 1018.87 1019.26 1019.60 1019.85 1020.09 1020.31 1020.59 1020.92 1021.25 1021.51 1021.88
1016.33 1016.17 1016.41 1016.38 1016.90 1016.13 1015.16 1013.54 1013.11 1013.08 1013.42 1013.48 1013.95 1014.19 1014.27 1014.33 1014.27 1014.41 1014.63 1014.78 1014.77 1014.85 1015.20 1015.68 1015.82 1015.96 1015.93 1016.13 1016.40 1016.65 1016.73 1016.89 1016.99 1017.02 1017.12 1017.44 1017.78 1018.14 1018.49 1018.98 1019.41 1019.73 1020.00 1020.28 1020.56 1020.89 1021.22 1021.59 1022.06
Wind_Speed
5 11 5 5 7 7 4 6 4 7 8 5 6 1 6 11 9 6 13 11 15 15 14 13 11 13 12 11 10 8 11 11 11 10 10 10 10 11 11 10 12 14 15 16 14 13 13 12 11
5 6 5 6 10 8 7 8 8 10 8 6 6 3 3 7 8 12 12 13 15 14 13 13 10 11 12 11 10 9 9 10 9 8 9 9 8 9 9 11 9 12 13 14 11 10 10 10 9
8 8 6 5 10 6 6 10 11 8 8 8 6 5 3 6 9 14 15 16 14 13 12 14 11 11 11 11 10 9 9 8 8 7 7 8 8 9 8 8 8 10 11 11 9 9 9 9 9
5 6 5 9 9 4 4 9 12 12 6 3 1 6 6 3 12 10 17 16 14 12 12 12 11 11 11 10 11 11 10 9 8 8 8 8 7 7 6 6 8 10 10 8 8 8 7 9 9
6 6 10 12 3 3 2 10 13 11 10 9 7 6 8 11 9 17 15 14 14 12 13 12 9 10 10 9 10 10 11 10 9 8 7 7 7 6 5 4 5 7 8 7 6 6 7 7 7
8 6 10 12 9 5 6 10 11 7 7 8 5 10 9 11 14 16 14 13 13 12 12 12 9 8 8 8 8 7 7 9 9 9 8 7 7 6 5 4 4 3 3 3 4 5 5 4 5
11 9 14 14 11 9 8 12 10 8 8 8 7 11 8 12 15 15 14 12 12 12 11 11 11 9 6 6 6 5 4 5 4 5 6 7 7 6 4 4 4 2 1 1 2 3 3 3 2
5 7 18 15 12 10 13 14 8 7 8 6 6 6 10 13 16 14 13 12 11 12 11 10 10 11 10 9 6 6 5 4 3 4 4 4 4 5 5 3 5 2 1 1 1 1 1 1 0
2 7 11 14 13 10 15 15 9 4 7 5 7 3 13 19 16 14 13 13 11 10 10 10 9 9 9 9 9 6 5 4 4 5 5 6 7 8 9 6 6 4 3 3 3 4 4 4 7
6 12 17 8 9 11 18 14 13 8 11 7 8 4 14 19 17 16 15 13 13 12 10 8 9 8 8 6 10 8 8 7 7 6 7 7 5 0 2 3 5 5 5 6 7 7 6 7 5
0 8 3 3 4 8 17 12 12 9 11 10 13 12 18 17 16 15 13 13 14 12 10 10 9 8 8 6 5 4 5 5 5 6 5 4 3 3 4 2 5 6 8 6 8 7 6 4 3
5 2 3 1 1 8 16 11 8 11 6 5 9 16 18 19 16 16 15 14 13 13 12 11 10 9 8 5 5 5 4 4 4 4 5 4 3 3 4 3 4 2 3 3 2 2 3 4 3
2 2 3 3 4 5 7 12 8 11 5 3 8 15 18 16 15 13 13 13 14 13 12 12 11 10 8 8 6 6 5 5 5 5 5 5 5 4 4 4 3 3 4 4 5 4 3 3 3
5 1 4 3 6 4 9 6 2 10 5 7 10 14 15 15 14 13 13 12 13 12 12 12 12 11 10 9 9 6 6 6 6 5 6 8 6 5 5 3 1 4 4 6 4 4 4 4 5
6 3 6 6 4 3 5 6 10 6 6 8 10 11 12 13 13 14 13 12 13 11 12 12 12 12 11 11 9 7 6 6 6 6 7 8 8 8 8 6 6 6 6 8 4 4 3 4 4
5 1 6 8 3 3 3 12 13 5 10 10 10 11 12 13 13 12 12 13 13 12 12 12 9 11 11 10 9 7 7 7 7 6 6 8 10 10 9 7 7 8 6 5 7 6 6 5 5
5 6 6 6 4 2 8 9 12 5 7 11 10 10 11 11 13 13 14 14 13 13 13 12 12 12 12 11 8 8 8 7 6 6 6 8 9 10 9 7 7 8 6 7 7 6 4 5 5
4 1 3 4 6 2 6 11 4 5 7 10 11 11 11 12 14 14 14 13 13 13 13 13 11 12 11 8 7 6 6 7 6 6 6 7 7 9 9 8 9 7 6 5 4 7 5 4 6
16 8 5 6 7 5 11 12 9 7 5 8 9 9 10 12 10 11 12 13 13 13 13 13 11 11 8 7 7 7 8 7 6 5 5 6 7 8 8 7 9 8 7 8 6 5 4 5 2
10 11 15 5 2 4 7 12 13 12 10 11 11 11 11 12 13 12 13 12 13 14 14 12 13 12 10 8 7 6 6 5 5 3 4 5 5 7 7 8 7 8 6 6 4 5 4 1 2
12 16 11 2 5 2 7 15 16 14 14 13 12 13 14 16 16 15 14 14 13 13 13 12 13 12 12 11 7 5 3 3 4 5 5 4 4 3 5 7 6 5 4 4 4 2 4 3 1
13 4 7 5 2 9 3 8 14 14 12 11 13 15 18 19 17 15 14 12 10 9 8 10 11 11 11 12 9 11 9 9 7 6 4 4 3 2 1 1 1 1 1 2 2 1 1 1 3
6 9 10 5 4 5 8 7 10 14 12 12 16 15 15 11 9 11 12 10 11 9 8 8 11 12 13 12 12 9 10 6 2 3 5 5 4 3 3 3 3 4 3 3 3 3 2 1 2
14 15 9 4 2 6 11 9 7 12 11 15 6 4 4 3 4 6 6 5 6 6 6 8 11 12 11 11 12 12 10 8 6 6 6 5 5 4 4 4 4 4 4 4 4 4 3 3 2
8 13 4 4 5 7 5 9 12 6 8 8 8 1 3 5 6 6 8 7 7 6 7 7 9 11 9 9 10 10 10 9 9 7 5 6 5 4 5 5 4 4 4 3 3 3 3 2 2
14 13 4 6 7 3 2 8 4 3 7 7 4 6 7 6 4 5 6 6 7 7 7 7 7 9 7 8 10 8 8 5 5 6 6 5 5 5 6 4 3 4 4 4 3 3 3 3 2
9 9 2 4 2 1 7 7 11 12 11 6 6 4 6 3 3 5 5 6 6 6 5 6 7 7 6 8 7 5 5 6 6 6 5 5 4 5 6 6 6 5 5 4 5 3 4 4 3
5 10 4 2 5 6 6 8 9 6 7 6 3 1 4 3 6 7 6 7 5 4 4 4 6 7 7 6 5 5 5 5 6 6 6 5 5 7 7 7 6 6 5 5 5 4 4 5 3
6 7 4 3 3 3 4 5 7 6 5 1 5 6 6 5 5 6 5 5 4 4 5 5 7 8 7 7 7 7 6 7 6 6 7 7 7 7 8 8 7 7 7 6 5 5 5 5 4
12 10 11 4 4 5 4 4 5 8 7 7 5 6 6 5 4 5 5 5 5 5 5 6 7 8 7 7 6 7 7 8 9 9 9 8 9 8 7 7 7 7 6 6 6 6 5 5 5
Wind_Direction
268 188 184 230 236 237 126 159 115 145 144 85 128 305 32 30 8 49 143 123 139 136 131 152 151 143 139 133 127 113 125 115 110 104 94 83 87 82 71 71 68 69 69 75 74 74 71 75 80
226 198 222 265 258 216 150 134 175 163 95 140 136 167 190 86 71 122 136 147 147 135 146 141 137 146 145 138 133 131 118 116 113 106 101 93 101 89 83 77 84 78 74 70 68 78 82 80 88
240 244 254 231 244 266 129 166 153 113 143 162 137 315 65 75 122 145 121 149 143 140 143 118 131 138 147 143 142 137 130 126 121 115 114 105 96 97 84 74 61 92 78 69 67 74 87 87 85
216 204 241 248 213 61 40 156 133 146 152 225 182 132 101 338 135 116 145 146 145 142 132 134 137 139 135 145 164 145 141 138 132 122 120 113 114 108 86 82 67 100 90 78 69 72 82 88 81
250 246 232 227 204 84 155 129 152 167 155 168 207 121 108 110 109 134 147 151 143 145 128 146 137 138 143 149 144 155 150 153 150 145 136 129 123 125 106 90 96 76 85 78 73 76 78 83 83
237 243 223 219 179 142 148 153 162 165 151 131 193 127 128 132 148 147 151 151 148 143 140 136 140 138 140 148 158 170 163 164 170 168 156 152 143 141 143 130 120 94 92 98 67 61 67 78 77
250 213 231 222 165 174 160 166 170 150 157 165 135 147 121 156 146 150 158 148 153 141 151 153 161 151 143 146 153 148 134 126 169 176 167 162 161 161 160 164 176 174 163 113 85 67 55 59 71
288 254 234 233 170 188 157 172 184 179 143 101 185 174 165 155 150 155 157 151 159 151 161 161 163 168 169 163 166 165 161 158 152 144 155 163 180 190 186 190 191 192 204 222 188 201 232 255 142
258 240 216 216 199 148 156 170 184 62 133 190 164 349 126 144 151 161 158 159 162 161 172 170 163 178 171 171 164 176 182 181 184 182 183 190 224 187 183 169 148 195 235 258 266 264 263 263 244
250 222 215 232 224 157 173 178 157 173 159 171 169 118 139 152 161 166 172 169 172 173 177 181 184 187 180 186 156 199 178 199 201 195 182 217 239 17 325 149 170 219 233 247 245 252 256 250 260
1 246 50 71 27 250 175 181 168 190 186 183 185 158 152 163 170 174 178 183 179 179 177 188 187 187 185 191 196 191 188 197 209 210 209 208 221 184 200 192 197 219 210 235 197 199 225 251 290
221 45 333 83 324 200 169 166 187 199 101 152 175 159 163 171 179 180 183 187 185 185 182 186 187 189 189 195 200 197 201 198 211 204 210 229 224 214 245 208 197 187 208 258 353 330 334 308 289
319 90 79 80 132 178 157 177 186 197 96 124 145 161 172 181 183 188 188 187 185 189 183 185 190 189 191 202 197 205 205 196 217 213 205 226 237 230 245 245 240 216 221 229 225 225 223 227 238
352 350 117 100 132 144 185 173 199 192 137 147 163 173 177 188 188 186 191 194 192 190 191 189 192 198 195 199 212 207 213 214 213 227 224 212 240 241 244 232 218 255 270 273 256 255 229 238 237
297 208 162 114 106 113 207 195 209 118 180 158 179 179 182 194 194 198 198 204 201 200 196 196 198 201 209 207 212 218 218 224 223 226 231 238 232 239 244 222 223 239 242 252 277 257 253 252 239
345 242 173 110 149 99 224 211 202 146 197 187 182 181 189 197 203 203 205 208 210 208 206 203 199 213 213 218 217 220 224 221 228 231 235 238 241 242 244 241 231 237 233 221 233 235 236 240 260
347 186 200 127 49 54 215 229 123 177 213 206 191 198 199 202 208 210 213 211 213 211 212 209 204 209 217 224 229 230 230 228 236 242 246 248 246 248 248 248 247 248 238 231 236 243 245 250 267
206 212 314 226 47 255 221 257 119 202 239 220 210 211 211 216 217 217 221 221 219 223 224 221 214 216 221 223 225 232 227 232 232 231 241 254 260 254 248 243 256 242 242 253 235 240 235 255 265
164 187 221 303 37 320 245 254 230 171 224 226 229 230 227 232 237 240 229 226 223 229 229 229 228 220 218 211 210 217 215 213 219 220 239 258 257 255 255 252 245 241 227 231 223 221 250 268 329
221 184 188 173 77 290 271 263 246 244 237 242 241 237 240 247 240 231 237 234 231 233 230 234 230 226 215 214 209 227 216 216 223 192 217 244 256 254 255 246 251 248 234 229 205 218 258 265 227
201 207 213 205 147 238 291 270 258 237 237 236 244 253 259 256 253 248 232 224 236 235 240 232 233 231 220 219 213 208 228 214 201 204 210 208 238 239 248 251 254 262 261 218 205 236 263 283 223
192 188 123 116 251 239 274 269 248 238 215 224 243 241 242 245 249 258 267 280 263 240 255 248 240 232 225 212 212 215 214 219 213 200 182 177 201 211 248 254 283 159 236 146 124 82 280 200 230
219 151 130 118 219 307 203 266 255 254 250 254 245 238 248 254 285 296 295 286 272 284 273 240 240 233 219 214 217 219 226 237 209 165 175 186 169 167 151 147 154 158 148 125 148 151 155 190 240
132 110 91 113 345 271 239 230 236 225 218 240 245 35 7 342 305 285 285 297 284 281 276 262 248 238 230 221 220 229 228 222 200 197 192 187 178 168 168 164 158 154 143 156 153 149 153 155 176
157 164 132 161 189 238 355 215 246 303 304 269 284 295 281 286 284 290 284 280 279 272 264 260 248 238 221 221 232 228 235 234 219 207 202 180 178 187 178 173 165 161 147 138 140 131 120 122 150
191 188 165 211 207 190 109 233 243 265 281 296 279 269 277 278 299 304 305 298 295 300 290 269 251 252 221 222 224 225 232 239 222 214 207 191 186 180 147 160 148 136 140 140 132 121 121 127 139
175 211 18 82 33 297 194 253 271 240 268 257 260 262 258 250 332 321 328 331 327 317 304 284 262 247 229 233 235 229 228 223 219 209 200 191 168 147 165 163 162 164 162 164 162 155 155 159 159
207 151 135 215 195 232 234 246 252 181 225 230 186 32 21 342 335 343 345 351 348 328 303 255 246 238 228 224 223 230 221 219 215 198 197 185 176 168 169 171 174 171 170 173 177 169 173 173 164
169 177 215 195 251 261 280 255 26 45 37 48 75 58 32 6 5 6 355 348 331 309 283 252 231 227 220 216 213 213 211 207 201 200 199 194 180 178 180 181 182 183 184 185 191 185 180 185 166
230 207 200 207 204 247 344 267 93 82 73 61 45 358 344 334 349 5 349 319 290 272 264 259 246 239 225 220 221 223 215 205 205 206 198 189 191 187 186 184 187 190 192 190 197 191 186 182 173